Location: Preissac
(48.4072°N, 78.3618°W)
Time: 04:16:09
(UTC-04:00)

ISS - Visible Passes

Search period start: 22 August 2019 00:00
Search period end: 01 September 2019 00:00
Orbit: 410 x 421 km, 51.6° (Epoch: 23 August)

Date Brightness Start Highest point End Pass type
(mag) Time Alt. Az. Time Alt. Az. Time Alt. Az.
28 Aug -2.1 05:48:36 10° SSW 05:51:29 27° SE 05:54:24 10° E visible
29 Aug -1.5 05:00:44 11° S 05:02:51 18° SE 05:05:13 10° E visible
30 Aug -1.1 04:14:01 11° SE 04:14:15 11° SE 04:15:26 10° ESE visible
30 Aug -3.4 05:47:06 10° SW 05:50:24 58° SSE 05:53:41 10° ENE visible
31 Aug -2.8 05:00:07 24° SSW 05:01:38 38° SSE 05:04:46 10° ENE visible
